GW3819 Weather Reports


time (UTC)temp
F
wind
direction
speed
knots
gust
knots
rain 1hr
in
rain 24hr
in
rain mn
in
humidity
%
barometer
mb
20260507064621 38 186 6.1 8.7 0.00 0.01 0.00 81 1011.9
20260507063052 38 150 4.3 10.4 0.00 0.01 0.00 82 1012.0
20260507061547 37 197 4.3 8.7 0.00 0.01 0.00 82 1012.0
20260507060104 37 139 4.3 8.7 0.00 0.01 0.00 83 1011.8
20260507054547 36 202 7.8 11.3 0.00 0.01 0.00 84 1011.7
20260507053041 36 180 7.8 10.4 0.00 0.01 0.00 84 1011.6
20260507051545 37 209 4.3 8.7 0.00 0.01 0.00 84 1011.3
20260507050041 37 202 5.2 7.8 0.00 0.01 0.00 84 1011.1
20260507044529 36 207 4.3 6.1 0.00 0.01 0.00 84 1011.0
20260507043026 36 191 0.0 1.7 0.00 0.01 0.00 84 1010.7
20260507041527 36 192 0.0 2.6 0.00 0.01 0.00 84 1010.6
20260507040021 37 201 1.7 7.0 0.00 0.01 0.00 83 1010.5
20260507034519 36 153 3.5 7.0 0.00 0.01 0.00 83 1010.5
20260507033020 36 165 2.6 4.3 0.00 0.01 0.00 84 1010.3
20260507031515 36 223 0.0 2.6 0.00 0.01 0.00 84 1010.3
20260507030024 36 93 0.0 0.0 0.00 0.01 0.00 84 1010.3
20260507024517 36 93 0.0 0.0 0.00 0.01 0.00 83 1010.1
20260507023011 37 157 0.0 0.0 0.00 0.01 0.00 83 1010.2
20260507021510 37 157 0.0 2.6 0.00 0.01 0.00 82 1010.1
20260507020009 37 128 1.7 5.2 0.00 0.01 0.00 82 1010.1
20260507014512 37 202 0.9 6.1 0.00 0.01 0.00 82 1009.9
20260507013011 37 186 1.7 5.2 0.00 0.01 0.00 82 1009.7
20260507011506 37 168 3.5 6.1 0.00 0.01 0.00 82 1009.7
20260507010007 37 170 1.7 3.5 0.00 0.01 0.00 82 1009.6
20260507004503 37 165 2.6 3.5 0.00 0.01 0.00 82 1009.7
20260507003001 37 223 0.0 1.7 0.00 0.01 0.00 82 1009.4
20260507001500 37 158 1.7 3.5 0.00 0.01 0.00 81 1009.3
20260507000059 37 160 2.6 7.0 0.00 0.01 0.00 82 1009.5
20260506234600 37 167 0.9 2.6 0.00 0.01 0.00 82 1009.7
20260506233059 38 167 0.9 5.2 0.00 0.01 0.00 81 1009.7
20260506231607 38 171 0.9 4.3 0.00 0.01 0.00 78 1009.6
20260506230106 39 148 0.0 1.7 0.00 0.01 0.00 78 1009.6
20260506224552 39 131 3.5 7.8 0.00 0.01 0.00 76 1009.5
20260506223050 38 130 4.3 13.0 0.00 0.01 0.00 78 1009.4
20260506221608 38 170 2.6 8.7 0.00 0.01 0.00 77 1009.3
20260506220055 38 121 2.6 7.8 0.00 0.01 0.00 77 1009.2
20260506214547 39 121 4.3 10.4 0.00 0.01 0.01 77 1009.0
20260506213058 39 125 5.2 10.4 0.00 0.01 0.01 77 1009.1
20260506211541 38 164 7.8 13.9 0.01 0.01 0.01 79 1009.0
20260506210046 38 94 7.8 13.9 0.01 0.01 0.01 81 1009.0
20260506204538 39 238 1.7 8.7 0.01 0.01 0.01 79 1009.1
20260506203035 39 133 3.5 7.8 0.01 0.01 0.01 77 1009.1
20260506201539 40 219 6.1 13.0 0.00 0.00 0.00 72 1009.3
20260506200030 41 204 8.7 16.5 0.00 0.00 0.00 70 1008.9
20260506194528 40 209 2.6 6.1 0.00 0.00 0.00 72 1008.7
20260506193026 42 192 2.6 13.9 0.00 0.00 0.00 68 1008.3
20260506191524 41 244 6.1 14.8 0.00 0.00 0.00 68 1008.1
20260506190028 42 175 8.7 13.9 0.00 0.00 0.00 67 1008.0
20260506184524 41 186 5.2 8.7 0.00 0.00 0.00 67 1007.6
20260506183020 42 223 7.8 13.9 0.00 0.00 0.00 61 1007.5
20260506181520 43 219 12.2 24.3 0.00 0.00 0.00 67 1007.0
20260506180024 44 207 8.7 19.1 0.00 0.00 0.00 68 1006.7
20260506174524 44 187 8.7 15.6 0.00 0.00 0.00 66 1006.3
20260506173018 45 196 8.7 14.8 0.00 0.00 0.00 63 1005.9
20260506171530 46 194 9.6 15.6 0.00 0.00 0.00 63 1005.6
20260506170016 47 171 7.8 13.9 0.00 0.00 0.00 55 1005.4
20260506164520 48 179 5.2 12.2 0.00 0.00 0.00 53 1005.2
20260506163017 48 18 6.1 12.2 0.00 0.00 0.00 52 1004.9
20260506161516 49 202 1.7 8.7 0.00 0.00 0.00 52 1004.7
20260506160016 50 325 3.5 10.4 0.00 0.00 0.00 53 1004.5
20260506154514 50 267 7.8 17.4 0.00 0.00 0.00 49 1004.8
20260506153013 51 235 7.8 23.5 0.00 0.00 0.00 48 1004.8
20260506151516 52 282 4.3 19.1 0.00 0.00 0.00 48 1004.8
20260506150012 51 303 5.2 13.0 0.00 0.00 0.00 48 1004.8
20260506144509 50 208 4.3 13.0 0.00 0.00 0.00 51 1004.9
20260506143009 50 41 5.2 13.0 0.00 0.00 0.00 55 1005.1
20260506141507 52 211 4.3 14.8 0.00 0.00 0.00 55 1005.2
20260506140013 49 340 4.3 10.4 0.00 0.00 0.00 59 1005.1
20260506134505 47 169 8.7 13.9 0.00 0.00 0.00 61 1005.5
20260506133004 47 222 6.1 15.6 0.00 0.00 0.00 65 1005.2
20260506131506 47 18 2.6 13.0 0.00 0.00 0.00 65 1005.2
20260506130003 47 166 4.3 16.5 0.00 0.00 0.00 64 1005.2
20260506124505 47 192 8.7 18.2 0.00 0.00 0.00 62 1005.1
20260506123001 47 221 6.1 12.2 0.00 0.00 0.00 67 1005.0
20260506121601 48 212 3.5 9.6 0.00 0.00 0.00 63 1004.7
20260506114559 51 322 0.9 3.5 0.00 0.00 0.00 65 1004.5
20260506113058 52 188 0.9 4.3 0.00 0.00 0.00 63 1004.4
20260506111556 52 289 0.9 4.3 0.00 0.00 0.00 66 1004.4
20260506110054 52 262 0.9 4.3 0.00 0.00 0.00 64 1004.7
20260506104556 52 248 1.7 7.0 0.00 0.00 0.00 64 1004.9
20260506103052 50 303 0.9 3.5 0.00 0.00 0.00 72 1005.2
20260506101546 48 340 1.7 7.8 0.00 0.00 0.00 67 1005.4
20260506100053 46 71 2.6 10.4 0.00 0.00 0.00 74 1005.4
20260506094539 47 15 0.9 7.8 0.00 0.00 0.00 71 1005.6
20260506093035 46 360 0.9 5.2 0.00 0.00 0.00 73 1005.5
20260506091534 45 231 0.0 5.2 0.00 0.00 0.00 77 1005.7
20260506090030 45 338 1.7 13.0 0.00 0.00 0.00 74 1005.6
20260506084526 44 82 2.6 7.8 0.00 0.00 0.00 75 1005.8
20260506083024 44 154 2.6 8.7 0.00 0.00 0.00 76 1005.8
20260506081622 44 49 3.5 10.4 0.00 0.00 0.00 78 1005.7
20260506073019 42 161 2.6 6.1 0.00 0.00 0.00 81 1005.9
20260506071518 42 212 0.9 5.2 0.00 0.00 0.00 81 1005.8